Location: Unspecified
(0.0000°N, 0.0000°E)
Time: 18:58:03
(UTC+00:00)

Vanguard 2 Rocket - Pass Details

Date: 26 January 2020
Orbit: 554 x 3327 km, 32.9° (Epoch: 20 February)

Event Time Altitude Azimuth Distance (km) Brightness Sun altitude
Rises 18:00:00 0° 239° (WSW) 7,317 13.6 3.0°
Reaches altitude 10° 18:08:59 10° 219° (SW) 6,153 12.2 0.8°
Maximum altitude 18:18:29 15° 189° (S) 5,266 11.2 -1.4°
Drops below altitude 10° 18:26:35 10° 157° (SSE) 5,130 10.7 -3.3°
Sets 18:32:43 0° 135° (SE) 5,559 10.7 -4.8°
